フィエチジョシュ彗星

C/2024 E1 ( Wierzchos )

English version
Home page
Updated on May 3, 2025

---------------------------------------------------------------------

・ プロフィール

発見日 2024年3月3日
発見光度 20.4等
発見者 Kacper W. Wierzchos (Mt. Lemmon Survey)

・ 写真集

・ 軌道要素

Epoch 2025 May 5.0 TT = JDT 2460800.5
T 2026 Jan. 20.76857 TT                                 Pike
q   0.5659449            (2000.0)            P               Q
z  -0.0001001      Peri.  243.63551     +0.35484372     -0.17052100
 +/-0.0000081      Node   108.08114     +0.02233154     +0.98449165
e   1.0000566      Incl.   75.23870     -0.93465889     -0.04121620
From 408 observations 2024 Feb. 15-2025 Feb. 27, mean residual 0".4.

・ 星図

・ 光度変化

        m1 = 7.0 + 5 logΔ + 10.0 log r

---------------------------------------------------------------------

軌道要素はM.P.E.C. 2025-D254に掲載されたものです。
星図はステラナビゲータ Ver.11 (アストロアーツ) で作成したものです。
光度グラフはComet for Windowsで作成したものです。

---------------------------------------------------------------------

Copyright(C) Seiichi Yoshida (comet@aerith.net). All rights reserved.